sat.trackr.live / text

‹ back to catalog

STARLINK-35431

NORAD 66030 · 2025-232AB

PAYLOAD ACTIVE UNKNOWN

§ Identity

Operator
Country
US
Launch date
2025-10-16
Launch site
AFETR
Launch vehicle
Mass (kg)
RCS (m²)

Purposes: comms

External: N2YO · Heavens-Above · Gunter

§ Orbital elements

Epoch: 2026-09-20T08:05:55.442400Z

Period
93.85 min
Inclination
53.1571°
Eccentricity
0.0000961
Mean motion
15.34398232 rev/d
Perigee alt
462.1 km
Apogee alt
463.4 km
Semi-major
6,840.8 km
B*
1.7530e-4
RAAN
276.4695°
Arg perigee
55.5916°
Mean anomaly
304.5178°
Rev number
5,328

§ Raw data

STARLINK-354311 66030U 25232AB  26263.33744725  .00005551  00000+0  17530-3 0  99972 66030  53.1571 276.4695 0000961  55.5916 304.5178 15.34398232 53281

JSON: /api/v1/satellites/66030 · /tle

For live sub-satellite position, see the globe view (requires WebGL).

§ Visibility from observer

Set your observer location to see the next 7 days of passes ≥ 10°. The values pass through the URL so the page stays shareable.

No JS? Fill the form by hand. The geolocation button needs JavaScript.